Terminal Aerodrome Forecast
Issued by NWS Sioux Falls, SD

Home | Current Version | Previous Version | Text Only | Print | Product List | Glossary On
Versions: 1 2 3 4 5 6 7 8 9 10 11 12 13 14 15 16 17 18 19 20 21 22 23 24 25 26 27 28 29 30 31
000
FTUS43 KFSD 240500
TAFSUX
TAF
KSUX 240539Z 2406/2506 09005KT P6SM SKC
     FM240900 12007KT P6SM BKN120
     FM241400 17014G23KT P6SM SCT060 OVC100
      TEMPO 2414/2417 P6SM TSRA OVC060CB
     FM250200 15013KT P6SM BKN120=

USA.gov is the U.S. government's official web portal to all federal, state and local government web resources and services.